Αρχική σελίδα
METAR-TAF:

METAR-TAF

Αεροδρόμια :

Hebron Municipal Airport

Hebron, Νεμπράσκα, Ηνωμένες Πολιτείες Αμερικής

γεωγραφικό πλάτος: 40-09-08N, γεωγραφικό μήκος: 097-35-13W, υψόμετρο: 447 μ

Παρών καιρός

Η αναφορά έγινε 22 λεπτά πριν, στις 00:55 UTC
Άνεμος 10 kt από Β/BA με ριπές μέχρι 18 kt
Θερμοκρασία -5°C
Υγρασία 86%
Πίεση 1029 hPa
Ορατότητα: 8.0 χλμ
Διάσπαρτα νέφη σε ύψος 1300 πόδια
Αρκετά νέφη σε ύψος 2700 πόδια
Νεφοσκεπής σε ύψος 9000 πόδια
Ασθενές χιόνι

METAR: KHJH 180055Z AUTO 02010G18KT 5SM -SN SCT013 BKN027 OVC090 M05/M07 A3039 RMK AO2 T10471066

Χρόνος: 19:17 (01:17 UTC)


TAF: λείπει

Μετεωρολογικές αναφορές και προγνώσεις για περισσότερα από 4000 αεροδρόμια (δελτία METAR και TAF).

Οι διαθέσιμοι σταθμοί απεικονίζονται στο χάρτη με κίτρινες και κόκκινες κουκκίδες.

Μετακινήστε το ποντίκι πάνω από τις κουκκίδες για να δείτε το όνομα του σταθμού.

Στη συνέχεια, κάντε κλικ για να δείτε τις μετεωρολογικές αναφορές και τις προγνώσεις καιρού.

Για να αλλάξετε το χάρτη: κάντε κλικ στα πράσινα κουμπιά με τον μαύρο σταυρό για να ζουμάρετε, στο πράσινο κουμπί με την παύλα για να αφαιρέσετε το ζουμ ή στα πράσινα βέλη για να αντιπαραβάλλετε χάρτες.


METAR-TAF: